Time,TemperatureF,DewpointF,PressureIn,WindDirection,WindDirectionDegrees,WindSpeedMPH,WindSpeedGustMPH,Humidity,HourlyPrecipIn,Conditions,Clouds,dailyrainin,SoftwareType,DateUTC
2013-02-03 00:03:00,23.0,23.0,-100.00,WNW,293,0.0,0.0,93,4.53,,,-99.99,,2013-02-03 05:03:00,
2013-02-03 00:12:00,23.0,23.0,-100.00,WNW,288,0.0,0.0,93,0.00,,,-99.99,,2013-02-03 05:12:00,
2013-02-03 00:22:00,23.0,23.0,-100.00,WNW,282,0.0,0.0,93,1.14,,,-99.99,,2013-02-03 05:22:00,
2013-02-03 00:32:00,23.0,23.0,-100.00,WNW,292,0.0,0.0,93,0.00,,,-99.99,,2013-02-03 05:32:00,
2013-02-03 00:42:00,23.0,23.0,-100.00,WNW,292,0.0,0.0,93,4.53,,,-99.99,,2013-02-03 05:42:00,
2013-02-03 00:52:00,22.0,21.0,-100.00,WNW,288,0.0,0.0,93,1.14,,,-99.99,,2013-02-03 05:52:00,
2013-02-03 01:02:00,22.0,21.0,-100.00,WNW,288,0.0,0.0,93,1.14,,,-99.99,,2013-02-03 06:02:00,
2013-02-03 01:11:00,22.0,21.0,-100.00,WNW,288,0.0,0.0,93,0.00,,,-99.99,,2013-02-03 06:11:00,
2013-02-03 01:21:00,22.0,21.0,-100.00,WNW,289,0.0,0.0,93,1.14,,,-99.99,,2013-02-03 06:21:00,
2013-02-03 01:32:00,22.0,21.0,-100.00,NW,307,0.0,0.0,93,1.14,,,-99.99,,2013-02-03 06:32:00,
2013-02-03 01:42:00,21.0,19.0,-100.00,NW,307,0.0,0.0,93,1.14,,,-99.99,,2013-02-03 06:42:00,
2013-02-03 01:52:00,21.0,21.0,-100.00,NW,307,0.0,0.0,93,0.00,,,-99.99,,2013-02-03 06:52:00,
2013-02-03 02:02:00,22.0,21.0,-100.00,NNW,345,0.0,0.0,93,1.14,,,-99.99,,2013-02-03 07:02:00,
2013-02-03 02:11:00,20.0,19.0,-100.00,NW,319,0.0,0.0,93,4.53,,,-99.99,,2013-02-03 07:11:00,
2013-02-03 02:21:00,22.0,21.0,-100.00,NNE,31,0.0,0.0,93,0.00,,,-99.99,,2013-02-03 07:21:00,
2013-02-03 02:32:00,22.0,21.0,-100.00,West,272,0.0,0.0,93,0.00,,,-99.99,,2013-02-03 07:32:00,
2013-02-03 02:42:00,23.0,21.0,-100.00,West,272,0.0,0.0,93,0.00,,,-99.99,,2013-02-03 07:42:00,
2013-02-03 02:52:00,22.0,21.0,-100.00,West,273,0.0,0.0,93,0.00,,,-99.99,,2013-02-03 07:52:00,
2013-02-03 03:02:00,20.0,19.0,-100.00,West,273,0.0,0.0,93,0.00,,,-99.99,,2013-02-03 08:02:00,
2013-02-03 03:11:00,20.0,19.0,-100.00,North,1,0.0,0.0,93,0.00,,,-99.99,,2013-02-03 08:11:00,
2013-02-03 03:22:00,20.0,19.0,-100.00,NNE,21,0.0,0.0,93,0.00,,,-99.99,,2013-02-03 08:22:00,
2013-02-03 03:32:00,21.0,19.0,-100.00,NNE,21,0.0,0.0,93,0.00,,,-99.99,,2013-02-03 08:32:00,
2013-02-03 03:42:00,20.0,19.0,-100.00,NNE,21,0.0,0.0,93,0.00,,,-99.99,,2013-02-03 08:42:00,
2013-02-03 03:52:00,20.0,19.0,-100.00,East,86,0.0,0.0,94,0.00,,,-99.99,,2013-02-03 08:52:00,
2013-02-03 04:03:00,20.0,19.0,-100.00,East,86,0.0,0.0,94,0.00,,,-99.99,,2013-02-03 09:03:00,
2013-02-03 04:11:00,19.0,19.0,-100.00,SE,142,0.0,0.0,94,0.00,,,-99.99,,2013-02-03 09:11:00,
2013-02-03 04:21:00,18.0,18.0,-100.00,SE,124,0.0,0.0,94,0.00,,,-99.99,,2013-02-03 09:21:00,
2013-02-03 04:32:00,17.0,16.0,-100.00,SE,127,0.0,0.0,93,0.00,,,-99.99,,2013-02-03 09:32:00,
2013-02-03 04:42:00,17.0,16.0,-100.00,SSE,158,0.0,0.0,94,0.00,,,-99.99,,2013-02-03 09:42:00,
2013-02-03 04:51:00,19.0,18.0,-100.00,SW,218,0.0,0.0,94,0.00,,,-99.99,,2013-02-03 09:51:00,
2013-02-03 05:01:00,18.0,18.0,-100.00,SW,218,0.0,0.0,93,0.00,,,-99.99,,2013-02-03 10:01:00,
2013-02-03 05:11:00,18.0,18.0,-100.00,SW,218,0.0,0.0,94,0.00,,,-99.99,,2013-02-03 10:11:00,
2013-02-03 05:21:00,18.0,18.0,-100.00,SW,218,0.0,0.0,93,0.00,,,-99.99,,2013-02-03 10:21:00,
2013-02-03 05:32:00,18.0,18.0,-100.00,SW,218,0.0,0.0,91,0.00,,,-99.99,,2013-02-03 10:32:00,
2013-02-03 05:42:00,18.0,18.0,-100.00,SE,138,0.0,0.0,93,0.00,,,-99.99,,2013-02-03 10:42:00,
2013-02-03 05:52:00,16.0,16.0,-100.00,SSE,156,0.0,0.0,93,0.00,,,-99.99,,2013-02-03 10:52:00,
2013-02-03 06:11:00,18.0,18.0,-100.00,East,87,0.0,0.0,94,0.00,,,-99.99,,2013-02-03 11:11:00,
2013-02-03 06:22:00,19.0,18.0,-100.00,SE,134,0.0,0.0,93,0.00,,,-99.99,,2013-02-03 11:22:00,
2013-02-03 06:32:00,18.0,18.0,-100.00,ESE,117,0.0,0.0,93,0.00,,,-99.99,,2013-02-03 11:32:00,
2013-02-03 06:42:00,19.0,19.0,-100.00,SSE,158,0.0,0.0,94,0.00,,,-99.99,,2013-02-03 11:42:00,
2013-02-03 06:52:00,19.0,19.0,-100.00,SE,146,0.0,0.0,94,0.00,,,-99.99,,2013-02-03 11:52:00,
2013-02-03 07:02:00,19.0,19.0,-100.00,SE,139,0.0,0.0,94,0.00,,,-99.99,,2013-02-03 12:02:00,
2013-02-03 07:12:00,20.0,19.0,-100.00,SE,145,0.0,0.0,94,0.00,,,-99.99,,2013-02-03 12:12:00,
2013-02-03 07:22:00,20.0,19.0,-100.00,SE,138,0.0,0.0,94,0.00,,,-99.99,,2013-02-03 12:22:00,
2013-02-03 07:32:00,20.0,19.0,-100.00,SSE,163,0.0,0.0,93,1.14,,,-99.99,,2013-02-03 12:32:00,
2013-02-03 07:42:00,21.0,21.0,-100.00,WNW,290,0.0,0.0,94,0.00,,,-99.99,,2013-02-03 12:42:00,
2013-02-03 07:53:00,21.0,21.0,-100.00,NW,313,0.0,0.0,94,0.00,,,-99.99,,2013-02-03 12:53:00,
2013-02-03 08:03:00,21.0,21.0,-100.00,SW,234,0.0,0.0,94,0.00,,,-99.99,,2013-02-03 13:03:00,
2013-02-03 08:11:00,21.0,21.0,-100.00,SSE,166,0.0,0.0,94,1.14,,,-99.99,,2013-02-03 13:11:00,
2013-02-03 08:21:00,21.0,21.0,-100.00,West,259,0.0,0.0,93,1.14,,,-99.99,,2013-02-03 13:21:00,
2013-02-03 08:32:00,21.0,21.0,-100.00,WSW,256,0.0,0.0,93,0.00,,,-99.99,,2013-02-03 13:32:00,
2013-02-03 08:42:00,21.0,19.0,-100.00,WSW,256,0.0,0.0,91,0.00,,,-99.99,,2013-02-03 13:42:00,
2013-02-03 08:52:00,22.0,21.0,-100.00,WNW,288,0.0,0.0,91,0.00,,,-99.99,,2013-02-03 13:52:00,
2013-02-03 09:02:00,22.0,21.0,-100.00,WSW,258,0.0,0.0,89,0.00,,,-99.99,,2013-02-03 14:02:00,
2013-02-03 09:12:00,21.0,18.0,-100.00,West,262,0.0,0.0,85,2.83,,,-99.99,,2013-02-03 14:12:00,
2013-02-03 09:21:00,21.0,18.0,-100.00,WNW,290,0.0,0.0,85,0.00,,,-99.99,,2013-02-03 14:21:00,
2013-02-03 09:32:00,22.0,18.0,-100.00,West,262,0.0,0.0,78,0.00,,,-99.99,,2013-02-03 14:32:00,
2013-02-03 09:42:00,24.0,18.0,-100.00,West,280,0.0,0.0,72,17.01,,,-99.99,,2013-02-03 14:42:00,
2013-02-03 09:52:00,24.0,16.0,-100.00,WSW,247,0.0,0.0,67,0.00,,,-99.99,,2013-02-03 14:52:00,
2013-02-03 10:03:00,23.0,14.0,-100.00,WSW,237,1.0,1.0,68,0.00,,,-99.99,,2013-02-03 15:03:00,
2013-02-03 10:12:00,22.0,14.0,-100.00,WNW,292,1.0,1.0,71,0.00,,,-99.99,,2013-02-03 15:12:00,
2013-02-03 10:22:00,22.0,14.0,-100.00,West,266,1.0,1.0,68,6.22,,,-99.99,,2013-02-03 15:22:00,
2013-02-03 10:33:00,22.0,14.0,-100.00,West,266,2.0,2.0,71,0.00,,,-99.99,,2013-02-03 15:33:00,
2013-02-03 10:42:00,24.0,18.0,-100.00,West,271,1.0,2.0,71,0.00,,,-99.99,,2013-02-03 15:42:00,
2013-02-03 10:51:00,24.0,16.0,-100.00,West,271,0.0,2.0,69,0.00,,,-99.99,,2013-02-03 15:51:00,
2013-02-03 11:03:00,22.0,16.0,-100.00,West,266,1.0,2.0,71,0.00,,,-99.99,,2013-02-03 16:03:00,
2013-02-03 11:11:00,22.0,16.0,-100.00,West,259,2.0,2.0,71,0.00,,,-99.99,,2013-02-03 16:11:00,
2013-02-03 11:22:00,23.0,16.0,-100.00,WSW,254,2.0,4.0,68,0.00,,,-99.99,,2013-02-03 16:22:00,
2013-02-03 11:33:00,26.0,16.0,-100.00,West,278,2.0,4.0,62,0.00,,,-99.99,,2013-02-03 16:33:00,
2013-02-03 11:42:00,24.0,14.0,-100.00,WNW,289,2.0,4.0,64,0.00,,,-99.99,,2013-02-03 16:42:00,
2013-02-03 11:52:00,23.0,14.0,-100.00,West,279,2.0,4.0,64,0.00,,,-99.99,,2013-02-03 16:52:00,
2013-02-03 12:03:00,23.0,14.0,-100.00,West,275,2.0,4.0,64,0.00,,,-99.99,,2013-02-03 17:03:00,
2013-02-03 12:11:00,23.0,12.0,-100.00,West,265,5.0,6.0,60,0.00,,,-99.99,,2013-02-03 17:11:00,
2013-02-03 12:22:00,24.0,12.0,-100.00,West,272,2.0,6.0,59,0.00,,,-99.99,,2013-02-03 17:22:00,
2013-02-03 12:32:00,26.0,14.0,-100.00,West,278,1.0,6.0,56,0.00,,,-99.99,,2013-02-03 17:32:00,
2013-02-03 12:42:00,25.0,14.0,-100.00,WSW,244,2.0,6.0,58,0.00,,,-99.99,,2013-02-03 17:42:00,
2013-02-03 12:52:00,25.0,12.0,-100.00,WNW,282,2.0,6.0,56,0.00,,,-99.99,,2013-02-03 17:52:00,
2013-02-03 13:03:00,24.0,12.0,-100.00,West,273,4.0,6.0,59,0.00,,,-99.99,,2013-02-03 18:03:00,
2013-02-03 13:12:00,24.0,12.0,-100.00,West,272,4.0,6.0,58,0.00,,,-99.99,,2013-02-03 18:12:00,
2013-02-03 13:23:00,25.0,12.0,-100.00,WNW,282,2.0,6.0,56,0.00,,,-99.99,,2013-02-03 18:23:00,
2013-02-03 13:33:00,25.0,12.0,-100.00,WNW,285,2.0,6.0,56,0.00,,,-99.99,,2013-02-03 18:33:00,
2013-02-03 13:42:00,25.0,14.0,-100.00,WNW,283,1.0,6.0,60,0.00,,,-99.99,,2013-02-03 18:42:00,
2013-02-03 13:51:00,23.0,14.0,-100.00,WNW,293,2.0,6.0,63,0.00,,,-99.99,,2013-02-03 18:51:00,
2013-02-03 14:02:00,23.0,12.0,-100.00,WSW,258,4.0,6.0,60,0.00,,,-99.99,,2013-02-03 19:02:00,
2013-02-03 14:11:00,23.0,12.0,-100.00,West,264,3.0,6.0,60,0.00,,,-99.99,,2013-02-03 19:11:00,
2013-02-03 14:22:00,23.0,12.0,-100.00,WNW,292,2.0,6.0,59,0.00,,,-99.99,,2013-02-03 19:22:00,
2013-02-03 14:32:00,24.0,12.0,-100.00,WNW,288,2.0,6.0,58,0.00,,,-99.99,,2013-02-03 19:32:00,
2013-02-03 14:42:00,25.0,12.0,-100.00,West,275,2.0,6.0,56,0.00,,,-99.99,,2013-02-03 19:42:00,
2013-02-03 14:51:00,24.0,12.0,-100.00,West,280,3.0,6.0,59,0.00,,,-99.99,,2013-02-03 19:51:00,
2013-02-03 15:02:00,24.0,12.0,-100.00,WNW,286,2.0,6.0,59,0.00,,,-99.99,,2013-02-03 20:02:00,
2013-02-03 15:12:00,24.0,12.0,-100.00,West,262,2.0,6.0,59,0.00,,,-99.99,,2013-02-03 20:12:00,
2013-02-03 15:22:00,24.0,12.0,-100.00,West,272,4.0,6.0,56,0.00,,,-99.99,,2013-02-03 20:22:00,
2013-02-03 15:33:00,24.0,12.0,-100.00,WNW,290,5.0,6.0,56,0.00,,,-99.99,,2013-02-03 20:33:00,
2013-02-03 15:42:00,24.0,12.0,-100.00,SW,223,4.0,6.0,58,0.00,,,-99.99,,2013-02-03 20:42:00,
2013-02-03 15:52:00,23.0,10.0,-100.00,WNW,285,3.0,6.0,56,0.00,,,-99.99,,2013-02-03 20:52:00,
2013-02-03 16:03:00,23.0,12.0,-100.00,WNW,290,4.0,6.0,58,0.00,,,-99.99,,2013-02-03 21:03:00,
2013-02-03 16:11:00,23.0,12.0,-100.00,WNW,288,4.0,6.0,58,0.00,,,-99.99,,2013-02-03 21:11:00,
2013-02-03 16:21:00,22.0,12.0,-100.00,West,278,4.0,6.0,60,0.00,,,-99.99,,2013-02-03 21:21:00,
2013-02-03 16:33:00,22.0,10.0,-100.00,West,278,2.0,6.0,59,0.00,,,-99.99,,2013-02-03 21:33:00,
2013-02-03 16:42:00,23.0,12.0,-100.00,West,273,2.0,6.0,59,0.00,,,-99.99,,2013-02-03 21:42:00,
2013-02-03 16:51:00,22.0,12.0,-100.00,WNW,285,6.0,8.0,60,0.00,,,-99.99,,2013-02-03 21:51:00,
2013-02-03 17:02:00,22.0,12.0,-100.00,West,273,5.0,8.0,62,0.00,,,-99.99,,2013-02-03 22:02:00,
2013-02-03 17:11:00,22.0,12.0,-100.00,WNW,292,4.0,8.0,62,0.00,,,-99.99,,2013-02-03 22:11:00,
2013-02-03 17:32:00,21.0,12.0,-100.00,West,272,4.0,8.0,67,0.00,,,-99.99,,2013-02-03 22:32:00,
2013-02-03 17:42:00,21.0,12.0,-100.00,WNW,282,4.0,8.0,67,0.00,,,-99.99,,2013-02-03 22:42:00,
2013-02-03 17:51:00,21.0,12.0,-100.00,West,278,4.0,8.0,68,0.00,,,-99.99,,2013-02-03 22:51:00,
2013-02-03 18:01:00,20.0,12.0,-100.00,WNW,285,2.0,8.0,69,0.00,,,-99.99,,2013-02-03 23:01:00,
2013-02-03 18:12:00,20.0,12.0,-100.00,West,273,1.0,8.0,69,0.00,,,-99.99,,2013-02-03 23:12:00,
2013-02-03 18:22:00,20.0,12.0,-100.00,West,266,1.0,8.0,69,0.00,,,-99.99,,2013-02-03 23:22:00,
2013-02-03 18:32:00,20.0,14.0,-100.00,WNW,289,0.0,8.0,71,0.00,,,-99.99,,2013-02-03 23:32:00,
2013-02-03 18:42:00,20.0,14.0,-100.00,West,269,0.0,8.0,72,0.00,,,-99.99,,2013-02-03 23:42:00,
2013-02-03 18:52:00,20.0,14.0,-100.00,West,279,0.0,8.0,73,0.00,,,-99.99,,2013-02-03 23:52:00,
2013-02-03 19:02:00,20.0,14.0,-100.00,West,266,0.0,8.0,75,0.00,,,-99.99,,2013-02-04 00:02:00,
2013-02-03 19:11:00,22.0,18.0,-100.00,West,272,0.0,8.0,78,1.14,,,-99.99,,2013-02-04 00:11:00,
2013-02-03 19:22:00,20.0,16.0,-100.00,West,275,0.0,8.0,81,1.14,,,-99.99,,2013-02-04 00:22:00,
2013-02-03 19:32:00,20.0,16.0,-100.00,West,262,0.0,8.0,82,6.22,,,-99.99,,2013-02-04 00:32:00,
2013-02-03 19:42:00,21.0,18.0,-100.00,West,268,0.0,8.0,84,0.00,,,-99.99,,2013-02-04 00:42:00,
2013-02-03 19:51:00,22.0,18.0,-100.00,West,272,1.0,8.0,84,0.00,,,-99.99,,2013-02-04 00:51:00,
2013-02-03 20:01:00,21.0,18.0,-100.00,SW,230,0.0,8.0,84,0.00,,,-99.99,,2013-02-04 01:01:00,
2013-02-03 20:11:00,21.0,18.0,-100.00,WNW,295,1.0,8.0,82,0.00,,,-99.99,,2013-02-04 01:11:00,
2013-02-03 20:21:00,22.0,18.0,-100.00,WSW,240,1.0,8.0,82,0.00,,,-99.99,,2013-02-04 01:21:00,
2013-02-03 20:32:00,22.0,18.0,-100.00,West,279,1.0,8.0,82,0.00,,,-99.99,,2013-02-04 01:32:00,
2013-02-03 20:42:00,21.0,18.0,-100.00,West,273,1.0,8.0,84,0.00,,,-99.99,,2013-02-04 01:42:00,
2013-02-03 20:52:00,21.0,18.0,-100.00,WSW,252,1.0,8.0,85,0.00,,,-99.99,,2013-02-04 01:52:00,
2013-02-03 21:02:00,21.0,18.0,-100.00,WNW,285,1.0,8.0,85,0.00,,,-99.99,,2013-02-04 02:02:00,
2013-02-03 21:11:00,21.0,18.0,-100.00,West,266,1.0,8.0,85,0.00,,,-99.99,,2013-02-04 02:11:00,
2013-02-03 21:21:00,21.0,19.0,-100.00,WNW,288,1.0,8.0,86,0.00,,,-99.99,,2013-02-04 02:21:00,
2013-02-03 21:32:00,21.0,18.0,-100.00,West,273,1.0,8.0,85,0.00,,,-99.99,,2013-02-04 02:32:00,
2013-02-03 21:42:00,21.0,18.0,-100.00,West,276,1.0,8.0,84,1.14,,,-99.99,,2013-02-04 02:42:00,
2013-02-03 21:52:00,22.0,18.0,-100.00,West,278,1.0,8.0,84,2.83,,,-99.99,,2013-02-04 02:52:00,
2013-02-03 22:02:00,21.0,18.0,-100.00,SW,234,2.0,8.0,85,1.14,,,-99.99,,2013-02-04 03:02:00,
2013-02-03 22:11:00,21.0,18.0,-100.00,West,268,2.0,8.0,84,2.83,,,-99.99,,2013-02-04 03:11:00,
2013-02-03 22:21:00,22.0,18.0,-100.00,WSW,258,1.0,8.0,82,0.00,,,-99.99,,2013-02-04 03:21:00,
2013-02-03 22:32:00,21.0,18.0,-100.00,WSW,256,1.0,8.0,84,1.14,,,-99.99,,2013-02-04 03:32:00,
2013-02-03 22:42:00,21.0,18.0,-100.00,West,262,1.0,8.0,84,1.14,,,-99.99,,2013-02-04 03:42:00,
2013-02-03 22:51:00,21.0,18.0,-100.00,WSW,244,1.0,8.0,84,0.00,,,-99.99,,2013-02-04 03:51:00,
2013-02-03 23:01:00,21.0,18.0,-100.00,West,265,0.0,8.0,84,2.83,,,-99.99,,2013-02-04 04:01:00,
2013-02-03 23:11:00,21.0,18.0,-100.00,West,261,2.0,8.0,82,1.14,,,-99.99,,2013-02-04 04:11:00,
2013-02-03 23:21:00,22.0,18.0,-100.00,West,264,2.0,8.0,82,0.00,,,-99.99,,2013-02-04 04:21:00,
2013-02-03 23:32:00,22.0,18.0,-100.00,WNW,285,1.0,8.0,81,0.00,,,-99.99,,2013-02-04 04:32:00,
2013-02-03 23:42:00,20.0,16.0,-100.00,WSW,252,1.0,8.0,81,0.00,,,-99.99,,2013-02-04 04:42:00,
2013-02-03 23:52:00,20.0,16.0,-100.00,West,269,1.0,8.0,80,0.00,,,-99.99,,2013-02-04 04:52:00,